GFSSE_850_dewp_132.txt.gz
Dewpoint
12 9 -0 4 6 7 6 4 4 7 10 11 11 11 11 10 9 8 6 5 6 7 8 9 8 7 7 10 11 10 10 11 10 12 10 11 11 11 10 10 12 11 10
13 10 7 4 7 8 6 5 4 7 10 12 12 11 11 10 10 9 8 7 7 8 9 9 9 10 10 11 10 10 10 10 10 11 11 11 10 9 11 12 13 11 11
13 11 10 4 8 8 6 5 4 7 11 12 12 12 11 10 10 9 9 8 7 8 9 9 10 11 10 10 10 10 10 10 11 11 11 12 11 10 11 13 13 11 10
12 13 12 7 9 9 6 6 5 6 10 12 12 12 10 10 10 10 10 9 7 8 9 9 10 11 11 11 11 11 10 10 11 11 12 13 12 11 11 13 12 11 11
12 14 13 9 10 9 7 6 6 6 8 11 11 11 10 9 10 10 10 9 7 8 9 9 10 10 12 11 10 9 8 8 10 12 13 7 13 11 11 11 11 11 11
12 15 14 11 11 9 8 7 7 7 7 8 9 8 9 9 9 9 8 7 7 8 9 9 10 10 10 10 9 8 7 8 10 12 13 12 13 11 11 11 11 11 11
14 14 15 12 11 9 8 8 7 7 6 7 7 7 7 8 9 8 7 6 6 7 8 9 10 10 10 8 7 7 8 9 12 13 13 13 12 11 11 11 11 11 11
15 15 15 14 11 10 9 8 8 7 7 7 7 7 8 8 8 7 7 6 6 7 8 9 9 10 8 7 6 7 8 11 13 12 11 11 11 11 11 11 11 11 10
15 16 16 16 13 10 9 9 8 8 8 8 8 8 8 8 8 7 7 6 7 8 7 8 9 8 7 7 6 6 7 8 13 13 11 11 10 11 11 11 11 10 9
12 16 16 16 13 11 10 10 9 9 9 9 9 9 9 9 8 7 7 7 8 9 8 8 8 7 6 6 5 4 6 8 11 12 11 9 10 11 11 11 9 9 8
7 14 15 16 14 11 11 10 10 10 9 9 9 9 9 9 9 8 7 7 8 9 9 9 8 6 6 6 4 5 6 9 13 12 12 10 10 10 10 8 9 8 7
-5 -0 13 14 15 14 12 11 11 11 10 10 10 9 9 9 9 9 8 8 9 10 10 9 8 7 7 6 5 5 9 11 11 12 10 9 9 10 11 10 8 8 8
-7 -5 7 13 14 15 14 15 13 11 11 11 10 10 10 10 11 11 12 10 10 10 10 10 9 8 7 9 12 10 9 12 12 12 10 10 9 9 8 8 8 8 9
-9 -8 -6 13 14 14 15 15 15 13 11 11 11 11 10 10 12 13 13 12 12 10 10 10 9 8 8 12 13 11 12 12 12 11 11 9 10 8 10 10 10 10 9
-11 -8 -6 -4 13 13 13 15 15 15 14 12 12 11 12 12 12 12 13 12 12 12 12 12 12 11 10 11 12 13 12 11 12 12 10 11 10 10 9 10 9 9 9
-13 -11 -9 -6 -4 10 12 14 14 14 14 14 13 13 12 13 12 13 13 13 12 12 12 12 12 12 12 12 12 11 11 10 10 12 12 11 11 10 9 9 9 9 10
-11 -11 -11 -12 -7 -1 11 12 13 13 13 14 14 14 14 12 13 13 12 13 12 12 13 12 12 12 11 11 11 11 11 11 12 11 10 11 11 11 9 9 9 9 8
-1 -2 -7 -11 -12 -7 9 10 11 13 14 13 14 13 14 14 11 14 14 12 12 12 13 12 12 12 12 11 11 11 11 11 12 11 10 11 10 11 9 10 9 9 8
-0 1 1 -3 2 3 3 13 11 12 13 14 14 14 11 12 11 13 14 13 12 13 14 13 12 12 12 11 11 12 11 11 11 11 11 11 11 10 9 10 10 9 8
-1 2 2 3 3 3 3 5 13 11 13 13 14 14 13 9 10 11 14 13 14 12 12 12 12 12 12 12 13 11 11 11 11 11 11 11 10 10 10 11 10 10 10
0 0 2 3 4 4 4 4 9 12 11 13 14 13 13 11 9 9 13 12 13 13 12 12 12 12 13 12 12 13 12 12 11 10 11 11 11 11 11 10 10 10 10
-0 0 1 2 3 1 -1 5 8 9 12 11 13 13 13 13 12 8 11 12 11 9 13 14 14 13 12 12 11 11 12 11 11 10 9 10 11 11 10 10 10 10 10
-1 -1 0 1 2 -0 -5 -1 3 6 12 12 12 13 13 13 11 11 8 13 12 7 8 13 14 13 11 12 12 12 11 11 9 9 9 9 9 11 11 11 9 11 10
-2 -2 -1 1 2 3 0 3 5 7 10 12 11 14 13 12 13 10 11 9 12 10 7 8 11 9 11 12 13 11 10 11 10 10 10 11 11 8 9 10 10 11 10
-3 -2 -1 -0 1 3 4 4 6 6 6 12 12 13 13 12 11 12 10 9 13 12 10 9 12 12 11 12 13 10 11 9 9 11 10 11 11 11 9 8 7 9 7
-4 -3 -1 -0 0 2 4 5 6 8 8 12 12 13 12 13 13 13 12 12 10 12 12 11 12 13 12 12 12 11 7 7 7 9 10 8 9 9 8 10 10 8 7

GFSSE_850_dewp_135.txt.gz
Dewpoint
10 2 0 4 4 4 4 4 3 4 8 11 11 9 9 9 7 6 4 4 5 7 7 5 3 7 10 8 10 11 11 11 11 11 11 11 11 10 9 10 10 10 11
12 11 5 4 5 6 5 3 3 3 8 11 11 10 10 9 9 7 6 5 6 7 8 8 8 7 9 11 11 10 11 10 11 11 11 11 9 9 11 13 11 10 10
10 12 11 6 6 8 5 4 3 4 7 11 11 10 9 9 9 9 8 6 6 7 8 9 9 10 10 11 10 10 10 11 11 11 12 11 11 11 12 13 11 11 10
12 12 12 10 8 9 6 5 3 5 7 10 11 10 9 9 9 9 9 7 6 7 8 9 10 10 11 11 11 11 10 11 11 11 12 12 12 11 12 13 11 11 11
14 13 14 13 9 10 6 5 4 5 7 9 10 10 8 8 9 9 9 7 6 7 8 9 10 10 11 11 10 9 9 9 11 11 12 9 11 11 11 12 11 11 11
15 15 14 14 11 10 7 6 5 5 7 7 8 8 8 8 8 9 9 8 6 7 7 8 9 10 11 10 9 8 9 10 11 11 11 11 12 11 11 11 11 11 11
15 15 15 14 12 11 8 8 7 7 7 7 7 6 7 7 8 8 8 7 7 7 7 7 8 9 9 9 7 6 9 11 12 12 12 11 11 11 11 11 10 11 11
14 15 15 15 13 11 8 8 8 7 7 7 7 6 6 7 8 8 7 6 6 7 7 7 8 8 8 6 5 7 8 12 11 12 11 11 11 11 11 11 11 10 10
11 11 15 16 15 13 9 9 8 7 7 7 7 7 7 7 8 8 7 6 6 7 7 7 8 8 6 5 6 6 7 11 12 12 11 11 10 11 11 11 11 11 10
11 6 10 12 12 14 10 9 9 8 8 8 8 8 8 8 8 8 7 7 7 7 8 7 7 7 6 5 4 4 6 10 11 10 12 10 9 10 11 11 11 10 9
3 10 0 9 12 11 11 10 9 9 9 9 9 8 9 9 9 8 7 7 8 8 8 8 7 7 5 6 4 4 6 11 11 11 11 8 9 9 10 11 8 10 8
-11 -8 9 10 13 13 11 11 10 10 9 9 9 9 9 9 9 8 8 7 8 9 9 8 8 7 6 6 5 5 7 10 11 11 11 8 8 8 10 10 9 9 7
-12 -9 -11 5 11 14 13 12 11 10 10 10 9 9 9 9 9 9 9 8 8 9 9 9 8 7 7 6 6 6 11 11 10 11 12 9 9 8 9 9 10 8 7
-13 -13 -13 -11 2 10 13 14 13 12 11 11 10 10 10 9 9 9 9 9 9 9 9 9 9 8 7 7 9 11 10 11 11 11 11 10 10 9 7 8 8 8 8
-11 -11 -12 -8 -10 -5 6 12 13 14 14 13 11 10 10 10 9 9 10 10 11 11 10 10 9 9 8 8 10 12 12 11 11 12 11 10 10 10 9 8 9 9 9
-5 -6 -6 -8 -5 -3 -9 9 12 13 14 15 14 12 11 10 10 10 11 12 12 12 12 11 11 10 10 10 11 12 12 11 12 11 11 11 9 9 9 9 8 8 9
-4 -3 -4 -6 -2 -1 1 1 12 13 12 14 14 12 12 11 11 11 11 11 12 11 11 12 12 11 12 11 11 12 11 11 10 10 10 10 9 10 10 9 9 9 8
-6 -5 -5 -5 -4 -2 0 3 7 13 13 12 14 14 13 13 12 13 11 11 12 12 12 12 12 12 12 11 11 11 10 10 10 10 10 10 9 10 9 9 9 10 9
-7 -8 -7 -5 -5 -3 -1 0 3 8 12 13 12 13 13 13 13 13 12 11 11 12 12 12 11 12 12 12 11 11 11 11 10 10 10 10 10 9 9 9 9 10 10
-7 -7 -6 -7 -7 -5 -2 -0 0 3 10 13 13 12 13 14 13 13 12 13 13 12 11 12 13 12 12 11 11 11 11 11 11 10 10 10 10 10 10 10 9 9 10
-6 -6 -5 -5 -6 -5 -4 -2 -2 -2 3 12 13 13 12 13 14 13 11 14 14 12 12 11 13 13 12 12 13 12 12 12 11 11 11 10 11 10 10 10 10 10 10
-5 -5 -4 -4 -3 -3 -2 -1 1 -1 -3 -0 9 13 12 11 13 13 13 12 14 12 13 12 12 12 12 13 13 13 13 12 12 12 11 10 10 11 10 10 10 8 10
-5 -4 -4 -4 -3 -1 0 0 0 0 -3 -7 -5 10 12 12 14 13 12 12 13 14 12 12 12 11 12 13 13 11 12 11 11 10 8 8 9 10 10 11 10 9 9
-5 -5 -4 -3 -2 -1 1 2 2 2 2 -8 -12 -5 12 13 13 13 12 11 12 13 14 13 11 13 13 12 13 11 11 9 9 9 8 8 9 10 10 9 10 10 9
-5 -4 -4 -3 -2 -0 1 2 2 3 4 2 -8 -7 -2 13 13 13 13 13 11 14 12 12 12 13 14 13 10 9 12 11 11 12 11 9 10 10 10 8 8 9 8
-5 -5 -4 -3 -2 -1 0 1 2 3 4 5 2 -1 -8 10 13 13 12 13 13 13 13 11 8 10 13 13 11 10 10 12 10 11 12 10 9 8 8 10 9 9 9

GFSSE_850_dewp_138.txt.gz
Dewpoint
6 2 3 6 6 6 5 4 3 2 6 10 9 8 7 6 5 4 4 6 7 7 5 4 4 9 12 9 10 11 12 11 11 11 11 11 10 10 10 10 9 9 10
11 6 5 7 7 7 5 3 2 2 5 9 9 8 8 7 6 6 4 5 7 7 5 4 5 8 8 10 11 11 10 11 11 11 11 11 10 9 10 11 10 10 10
10 12 8 7 9 9 6 4 3 3 4 7 9 8 8 8 7 7 6 5 6 7 8 8 8 9 10 11 11 11 11 11 11 11 11 10 10 10 11 12 10 10 10
8 12 12 10 9 10 6 4 3 3 5 7 8 7 6 7 7 8 8 5 5 6 7 9 9 10 10 10 11 10 10 11 11 12 12 12 11 11 12 11 11 11 10
12 14 13 12 10 10 7 5 4 4 6 8 8 7 6 7 7 7 7 6 5 6 7 8 9 10 11 11 10 9 9 11 11 12 12 11 11 11 12 11 11 11 11
15 15 14 14 13 11 8 6 5 6 6 8 8 7 5 6 7 7 7 6 5 6 7 8 9 10 11 10 8 7 7 10 11 12 11 9 11 11 12 11 11 11 11
12 15 15 15 13 12 9 7 7 7 7 8 9 7 6 6 7 7 6 6 5 6 7 7 8 9 10 9 7 6 8 9 10 11 11 12 11 11 11 11 10 10 10
9 7 11 13 15 13 10 8 8 9 9 9 8 8 6 6 7 7 6 6 5 6 6 7 8 8 9 7 6 7 8 9 9 10 11 11 11 11 11 11 10 10 10
10 10 7 8 10 14 13 9 9 9 9 9 9 8 7 7 7 7 7 6 5 6 6 7 8 8 8 6 7 8 9 9 11 11 10 11 11 10 11 11 11 11 10
8 6 16 13 12 13 12 11 9 9 9 9 9 9 9 8 8 7 7 6 6 6 7 7 7 8 8 6 7 7 11 11 10 11 11 9 9 10 10 11 11 10 10
-12 -12 2 14 15 15 14 13 10 9 9 8 8 8 8 9 9 8 7 7 6 6 7 7 7 7 6 6 6 6 8 12 9 10 10 8 8 9 10 11 9 9 9
-12 -12 -11 -10 -0 13 14 14 11 9 9 8 8 9 9 9 9 8 8 7 7 7 8 8 7 7 6 6 5 6 8 11 10 10 10 8 8 7 9 10 9 10 8
-9 -10 -11 -10 -8 4 14 14 14 11 10 9 9 9 9 10 10 9 9 9 8 8 8 9 8 7 6 6 5 6 8 11 11 10 11 9 9 9 7 10 9 9 8
-11 -9 -8 -8 -8 -6 3 13 14 14 12 10 10 9 9 9 10 10 9 9 8 8 8 8 9 8 7 7 6 6 11 12 11 10 12 10 9 9 7 8 9 9 8
-11 -10 -9 -9 -8 -8 -5 -4 4 13 14 14 12 10 10 9 9 10 9 9 9 8 8 9 9 9 8 7 8 9 9 11 10 10 11 11 10 9 9 8 8 8 9
-6 -9 -9 -8 -8 -7 -8 -5 -1 9 13 14 14 13 12 10 9 9 9 9 9 9 9 9 9 9 9 8 8 11 11 12 10 11 11 10 10 9 9 9 9 9 9
-7 -7 -8 -8 -8 -7 -7 -8 -6 1 9 13 14 13 13 13 11 10 10 9 9 9 11 11 11 10 10 10 9 11 11 12 11 12 10 10 10 9 9 9 9 9 9
-8 -8 -9 -9 -10 -10 -9 -8 -7 -7 1 8 12 14 14 13 12 11 10 10 10 10 12 12 11 12 11 11 11 10 10 11 11 11 10 10 10 9 9 9 9 9 9
-7 -7 -8 -8 -8 -9 -9 -10 -8 -7 -7 -1 7 12 14 13 13 12 11 11 11 11 12 12 12 12 11 10 11 10 10 10 9 10 9 9 10 10 9 9 8 9 10
-6 -6 -6 -6 -6 -7 -7 -8 -8 -8 -7 -7 -5 6 13 14 13 13 13 12 12 12 12 12 12 12 12 10 11 10 11 10 10 10 10 9 10 9 9 8 10 9 9
-6 -6 -6 -6 -5 -5 -5 -6 -6 -7 -8 -7 -7 -7 7 13 13 13 13 12 11 12 12 12 12 12 13 12 12 12 12 11 11 11 11 10 10 10 10 10 10 10 9
-5 -5 -5 -5 -5 -4 -3 -2 -1 -1 -4 -6 -7 -8 -6 8 11 11 12 13 12 11 13 13 13 12 13 12 12 12 12 11 11 11 11 11 10 10 10 10 10 10 9
-5 -5 -5 -5 -4 -4 -3 -1 0 0 0 -2 -3 -6 -9 -9 5 11 13 13 13 12 11 13 13 12 13 13 13 12 11 12 11 11 11 11 10 10 10 10 10 10 9
-6 -6 -5 -4 -4 -3 -2 -1 -0 1 1 2 1 -2 -7 -10 -7 -2 12 12 13 13 12 11 13 12 12 12 13 12 11 8 10 8 8 10 9 10 9 9 9 10 10
-6 -5 -5 -4 -3 -2 -2 -1 -0 1 1 2 2 2 -2 -10 -11 -1 6 12 12 13 12 12 13 13 12 12 11 12 13 12 10 7 7 5 6 7 8 8 9 9 9
-6 -5 -5 -4 -3 -3 -2 -1 -0 1 1 2 2 3 1 -4 -3 -3 1 7 12 11 13 12 12 13 12 13 12 13 13 13 12 10 10 9 8 8 8 8 9 9 8

GFSSE_850_dewp_141.txt.gz
Dewpoint
9 8 8 8 8 7 7 7 5 4 6 6 3 2 6 5 4 5 7 7 8 7 7 7 7 8 12 10 9 10 11 10 11 10 11 10 10 10 10 10 10 10 10
10 6 8 8 9 8 7 7 6 5 6 6 4 3 4 6 5 5 5 6 6 6 5 5 5 9 10 9 10 10 10 11 11 10 11 10 10 10 10 10 10 10 11
11 10 8 9 9 9 7 7 6 6 7 8 6 5 4 6 6 6 5 5 6 6 6 4 5 7 8 11 10 10 10 11 11 11 11 10 10 10 11 11 11 10 10
12 12 11 10 10 10 8 6 6 7 8 9 8 6 5 6 6 7 6 6 7 7 8 8 8 9 10 10 10 10 11 11 11 11 11 11 10 11 12 11 11 10 10
14 14 13 11 11 11 10 6 6 7 9 10 9 7 5 6 7 7 7 6 6 7 8 8 9 9 10 10 10 10 10 10 11 11 12 12 11 11 12 11 11 10 10
14 14 14 14 14 13 11 8 7 7 9 10 10 9 7 6 7 7 7 6 5 6 7 7 8 9 10 10 9 8 9 9 10 10 10 10 10 11 11 11 11 10 10
5 7 6 10 14 13 12 9 8 9 10 11 11 10 9 7 7 6 6 6 5 5 6 7 8 9 10 10 8 7 9 10 10 10 10 10 11 11 11 11 10 10 10
15 15 13 14 15 15 14 11 9 10 11 11 11 11 10 8 7 7 6 5 5 5 5 6 7 8 10 9 7 6 8 10 11 11 11 11 11 11 10 11 11 10 10
11 13 16 16 16 15 15 14 11 9 10 11 11 11 10 10 9 8 7 6 5 5 5 6 6 7 8 7 6 7 9 11 10 11 10 11 10 11 11 11 11 11 11
-6 4 13 14 14 14 15 15 13 10 9 9 11 11 11 11 10 9 9 8 6 5 6 6 6 6 7 7 6 7 9 11 11 11 11 10 10 11 11 11 11 11 10
-11 -9 -3 1 7 11 13 15 14 12 11 11 10 10 10 10 10 10 9 8 7 6 6 6 6 7 7 6 6 6 8 10 9 10 11 9 9 10 10 11 11 10 10
-10 -10 -9 -9 -9 2 12 13 14 13 12 11 10 9 9 9 9 9 9 9 8 7 7 7 7 7 7 6 6 5 6 7 8 9 10 8 8 9 9 10 11 9 10
-10 -9 -10 -10 -9 -8 -7 10 13 14 13 12 11 10 9 9 9 9 10 10 9 8 7 8 8 8 7 6 6 5 6 7 8 9 10 9 9 9 9 9 10 9 9
-8 -9 -10 -11 -11 -10 -8 -7 1 8 12 14 13 12 11 9 9 10 10 10 9 8 7 7 8 8 8 6 6 5 6 7 10 10 10 11 9 9 8 8 10 9 9
-8 -9 -9 -10 -12 -12 -12 -11 -9 -7 -2 8 13 14 13 11 10 10 10 10 10 9 8 7 8 9 8 7 7 6 6 8 10 11 10 11 10 9 9 8 9 9 9
-7 -8 -8 -8 -9 -10 -11 -11 -12 -11 -8 -4 7 12 14 14 12 11 10 10 10 9 9 8 8 8 9 8 7 6 6 10 11 10 10 11 10 10 9 9 8 8 9
-8 -8 -9 -9 -9 -9 -9 -10 -10 -11 -11 -10 -7 8 10 14 14 13 11 10 9 9 9 9 8 9 10 9 8 8 10 10 11 11 10 10 10 10 9 9 9 9 9
-7 -8 -8 -8 -8 -8 -8 -9 -9 -10 -10 -11 -10 -8 5 11 14 14 14 12 11 10 9 9 9 10 10 10 9 8 10 11 11 10 10 10 9 9 9 8 9 9 9
-7 -7 -7 -7 -7 -7 -7 -7 -7 -8 -8 -9 -10 -10 -8 0 11 13 13 14 13 11 10 10 10 11 11 11 11 9 10 11 10 11 10 9 9 9 9 8 8 8 8
-6 -6 -6 -6 -6 -6 -6 -5 -5 -5 -6 -7 -8 -9 -9 -8 -5 7 12 13 13 12 11 10 11 12 12 11 11 10 11 10 11 10 10 9 9 8 10 9 8 8 8
-5 -5 -5 -5 -5 -5 -5 -5 -4 -3 -3 -5 -5 -7 -9 -7 -6 -5 4 12 13 13 12 11 11 12 13 12 12 12 11 10 10 10 10 10 9 9 10 10 9 9 9
-5 -5 -5 -5 -5 -5 -4 -4 -3 -2 -1 0 -0 -3 -6 -7 -6 -5 -5 3 12 13 12 12 11 12 13 12 12 12 12 12 11 11 10 10 10 10 9 10 10 10 10
-5 -5 -5 -5 -5 -5 -4 -4 -3 -2 -1 0 2 1 -1 -3 -4 -4 -6 -4 9 10 11 12 11 11 12 13 12 12 12 12 12 11 11 11 11 11 10 10 10 10 9
-5 -5 -5 -5 -5 -5 -4 -3 -3 -2 -1 -0 1 1 1 0 -2 -3 -7 -7 -4 11 12 12 13 11 11 12 12 12 12 10 10 10 10 10 10 11 10 10 9 10 9
-5 -5 -5 -5 -4 -5 -4 -3 -3 -2 -2 -1 0 1 2 1 1 -1 -4 -9 -7 6 11 7 8 12 11 11 12 12 13 12 10 9 6 6 8 9 10 9 9 9 9
-5 -5 -5 -5 -5 -5 -4 -4 -3 -2 -2 -1 -0 1 2 4 5 5 -2 -7 1 6 8 10 11 11 11 11 12 12 12 12 11 10 8 6 5 5 7 9 8 8 8

GFSSE_850_dewp_144.txt.gz
Dewpoint
11 11 9 9 9 9 9 9 9 9 8 5 1 1 3 6 10 11 11 10 9 7 6 7 7 8 10 9 9 11 10 10 11 10 10 10 9 9 10 10 10 10 10
9 9 9 9 9 9 9 9 9 9 9 8 3 2 4 4 5 6 7 7 7 6 6 6 6 5 10 7 10 10 10 10 10 10 10 10 10 10 10 10 10 10 10
11 9 10 10 10 10 9 9 9 9 10 10 7 4 5 6 5 5 5 6 6 6 5 5 4 6 6 8 10 9 10 10 10 10 10 10 10 10 10 10 10 10 10
13 12 11 10 10 11 10 9 9 9 10 10 9 6 5 5 6 6 5 6 6 6 6 5 6 6 8 9 9 10 10 10 10 10 10 10 10 11 11 11 10 10 10
14 14 13 13 13 12 11 9 9 10 11 10 11 9 7 5 5 6 7 5 6 7 7 7 8 8 9 9 10 10 10 10 11 11 11 11 10 11 12 11 10 10 10
12 11 12 14 14 13 12 11 9 9 11 10 11 11 9 7 6 5 7 6 5 6 7 8 8 8 9 10 10 9 9 9 10 11 11 11 10 11 12 11 10 10 10
14 14 14 14 14 14 13 12 10 10 10 11 11 11 11 9 8 7 6 6 6 6 6 7 8 8 9 10 9 8 8 9 9 9 10 10 10 11 11 11 10 10 10
15 15 14 14 15 14 14 14 12 12 11 11 11 11 12 11 9 9 8 6 6 5 6 7 7 7 9 9 8 7 7 8 10 10 10 10 11 11 11 11 10 11 10
11 15 14 13 14 14 15 15 13 13 13 13 12 12 12 12 11 9 9 7 6 5 5 6 6 7 8 8 7 6 6 7 9 10 11 10 10 10 11 11 11 11 10
-1 6 11 12 13 14 13 13 13 13 12 13 13 12 12 12 12 11 9 9 7 6 5 5 6 7 7 7 6 5 6 7 8 10 10 10 10 10 11 11 11 11 11
-11 -10 -10 -9 -6 4 10 13 13 13 13 12 13 13 12 12 12 11 10 10 9 7 5 5 6 6 7 7 7 6 6 7 8 10 11 10 9 10 10 11 11 11 11
-12 -11 -11 -11 -10 -10 -9 -3 12 12 14 13 12 12 12 12 12 11 11 10 10 9 7 6 7 7 7 7 7 6 5 8 9 8 10 10 8 9 10 10 11 11 10
-9 -9 -11 -11 -12 -12 -12 -12 -9 -3 9 11 13 12 11 11 11 11 11 11 10 10 9 7 7 7 7 7 6 6 5 6 8 9 9 8 8 8 8 9 10 11 9
-8 -9 -9 -10 -11 -12 -13 -13 -13 -13 -11 -8 -3 8 13 12 12 11 11 11 11 10 9 8 7 7 8 8 7 6 6 5 6 8 10 9 9 8 9 7 9 10 9
-8 -8 -9 -9 -9 -10 -11 -11 -11 -11 -12 -13 -12 -8 4 12 13 12 12 11 11 11 9 9 8 7 8 8 7 6 6 5 6 8 9 10 10 9 9 8 8 10 9
-8 -8 -9 -9 -10 -11 -11 -12 -12 -11 -11 -11 -11 -11 -10 -1 9 13 13 12 11 11 11 9 9 8 8 8 8 7 6 6 6 8 10 10 11 10 9 9 8 8 9
-8 -8 -9 -9 -9 -10 -10 -10 -10 -10 -10 -10 -10 -11 -11 -9 -5 8 11 13 12 12 12 11 9 9 9 9 9 8 7 6 7 8 11 10 10 10 10 9 9 9 8
-7 -7 -7 -8 -8 -8 -8 -9 -8 -8 -8 -8 -8 -9 -10 -11 -9 -7 5 10 13 13 12 12 10 9 9 9 9 9 8 7 7 10 11 10 10 10 9 9 8 8 9
-6 -7 -7 -7 -7 -7 -7 -7 -7 -7 -6 -6 -6 -7 -8 -9 -10 -8 -7 1 11 13 13 12 12 10 10 9 9 9 9 8 9 11 11 10 10 10 9 9 8 8 9
-6 -6 -6 -6 -6 -6 -6 -6 -6 -6 -5 -5 -5 -4 -5 -6 -8 -8 -7 -6 -2 12 12 13 13 12 10 10 9 10 10 9 9 11 11 10 10 9 9 8 9 8 8
-5 -5 -5 -5 -5 -5 -5 -5 -6 -6 -5 -5 -4 -2 -1 -3 -4 -6 -7 -6 -5 -3 8 12 13 13 13 11 11 12 11 11 9 10 11 10 10 10 10 9 9 9 8
-5 -5 -5 -5 -5 -5 -5 -5 -5 -4 -4 -3 -3 -2 0 0 -0 -1 -3 -5 -4 -3 -3 10 8 13 13 13 12 13 13 12 10 11 10 10 10 9 9 9 8 9 8
-4 -4 -4 -5 -5 -5 -5 -5 -5 -5 -3 -3 -2 -1 0 0 -1 -0 -1 -2 -4 -4 -2 -3 4 13 12 13 12 12 12 12 11 10 10 10 11 10 10 10 9 9 10
-4 -4 -4 -5 -5 -5 -5 -5 -5 -4 -3 -3 -3 -2 -1 1 1 2 1 -0 -3 -6 -5 6 7 7 7 12 13 12 11 10 11 11 11 10 10 11 10 10 10 10 10
-4 -4 -4 -4 -5 -5 -5 -5 -5 -5 -4 -4 -2 -2 -1 0 2 3 4 4 -1 -4 -7 5 10 8 8 5 12 12 11 11 10 9 9 10 10 10 10 10 10 10 10
-4 -4 -4 -4 -5 -5 -6 -5 -5 -5 -4 -3 -3 -2 -1 -0 1 3 4 6 4 -1 -5 -7 10 9 7 8 12 11 10 11 11 10 10 8 6 7 8 9 9 9 10